GEFSNE_prec_meanprecacc_258.txt.gz
Total_Precipitation_Accumulation
1.60 1.81 1.70 1.53 1.53 1.49 1.65 1.88 1.95 1.68 1.48 1.42 1.39 1.41 1.60 1.69 1.87 1.76 1.60 1.67 1.51 1.35 1.24 1.19 1.22 1.31 1.37 1.42 1.50 1.60 1.74 1.83 1.94 2.17 2.50 2.84 3.18 3.52
1.72 1.88 1.86 1.72 1.71 1.63 1.67 1.82 2.03 1.97 1.70 1.45 1.48 1.46 1.54 1.41 1.58 1.47 1.50 1.64 1.50 1.40 1.35 1.28 1.23 1.24 1.26 1.32 1.36 1.35 1.36 1.37 1.36 1.43 1.56 1.74 1.98 2.30
1.73 1.78 1.78 1.91 1.92 1.85 1.96 2.01 2.08 2.19 1.97 1.61 1.64 1.75 1.75 1.56 1.50 1.44 1.42 1.43 1.38 1.42 1.36 1.32 1.26 1.21 1.14 1.11 1.16 1.20 1.19 1.20 1.20 1.20 1.22 1.27 1.29 1.37
1.77 1.91 1.81 1.88 1.94 2.01 2.18 2.09 2.15 2.42 2.34 2.01 1.95 2.03 1.92 1.80 1.73 1.62 1.40 1.33 1.32 1.49 1.39 1.31 1.23 1.15 1.11 1.07 1.05 1.04 1.05 1.04 1.06 1.06 1.06 1.06 1.06 1.07
1.88 1.95 1.98 2.15 2.06 2.10 2.15 2.12 2.17 2.41 2.60 2.37 2.18 2.28 2.24 2.03 1.97 1.75 1.59 1.59 1.39 1.43 1.44 1.34 1.26 1.20 1.12 1.10 1.09 1.04 0.98 0.94 0.91 0.93 0.98 1.03 1.06 1.08
1.99 2.03 2.05 2.11 2.17 2.31 2.31 2.38 2.53 2.72 2.85 2.71 2.57 2.64 2.67 2.55 2.34 1.96 1.85 1.73 1.59 1.45 1.50 1.41 1.36 1.29 1.19 1.11 1.06 1.05 1.03 1.00 0.98 0.95 0.95 0.99 1.03 1.05
1.96 2.01 1.99 2.09 2.15 2.25 2.20 2.39 2.70 2.89 3.02 3.04 2.98 3.12 3.07 2.95 2.61 2.23 2.13 2.01 1.83 1.59 1.51 1.39 1.37 1.29 1.25 1.22 1.16 1.12 1.08 1.06 1.06 1.07 1.07 1.04 1.04 1.04
2.05 2.08 2.05 2.03 1.94 1.96 2.04 2.17 2.36 2.56 2.79 3.00 3.08 3.16 3.19 3.09 2.89 2.62 2.28 2.02 1.82 1.66 1.69 1.56 1.44 1.36 1.23 1.15 1.25 1.21 1.14 1.10 1.09 1.09 1.10 1.12 1.14 1.16
2.08 2.08 1.90 1.76 1.80 1.71 1.85 1.91 1.90 1.96 2.10 2.39 2.60 2.65 2.89 3.01 2.92 2.56 2.25 1.97 1.75 1.69 1.74 1.62 1.50 1.40 1.28 1.25 1.34 1.21 1.15 1.12 1.08 1.05 1.06 1.07 1.10 1.15
1.87 1.90 1.87 1.76 1.75 1.83 1.82 1.70 1.55 1.52 1.65 1.67 1.76 2.01 2.32 2.66 2.77 2.63 2.57 2.28 1.95 1.71 1.66 1.60 1.45 1.35 1.26 1.23 1.34 1.25 1.15 1.11 1.09 1.07 1.02 0.99 0.99 1.02
1.82 1.83 1.80 1.65 1.76 1.70 1.64 1.65 1.55 1.46 1.47 1.51 1.56 1.76 2.06 2.32 2.55 2.58 2.48 2.38 2.10 1.78 1.64 1.57 1.44 1.41 1.36 1.25 1.23 1.26 1.17 1.14 1.12 1.09 1.06 1.04 1.02 1.02
1.87 1.88 1.88 1.72 1.78 1.71 1.65 1.69 1.59 1.51 1.50 1.48 1.50 1.56 1.63 1.93 2.25 2.26 2.24 2.29 2.14 1.90 1.61 1.59 1.48 1.49 1.46 1.21 1.04 1.01 1.04 1.12 1.14 1.08 1.05 1.03 1.05 0.93
1.83 1.78 1.79 1.80 1.61 1.50 1.44 1.43 1.49 1.52 1.53 1.47 1.41 1.42 1.48 1.60 1.82 1.92 2.00 2.02 1.96 1.76 1.52 1.57 1.52 1.47 1.39 1.23 1.09 1.01 0.95 0.94 0.96 0.99 1.01 1.04 1.03 0.89
1.66 1.62 1.61 1.56 1.35 1.21 1.07 1.05 1.12 1.11 1.17 1.27 1.27 1.24 1.27 1.34 1.52 1.78 1.96 1.98 1.86 1.74 1.69 1.64 1.55 1.51 1.46 1.32 1.15 1.03 0.98 0.91 0.84 0.79 0.81 1.03 1.08 1.07
1.37 1.56 1.55 1.41 1.28 1.19 1.12 1.04 0.96 0.89 0.97 1.06 1.01 1.02 1.07 1.18 1.36 1.66 1.93 2.11 2.01 1.76 1.64 1.61 1.56 1.53 1.49 1.28 1.05 0.94 0.94 0.90 0.83 0.80 0.80 0.86 0.92 0.98
1.33 1.50 1.56 1.54 1.43 1.32 1.22 1.06 0.89 0.87 0.90 0.94 0.99 1.02 1.13 1.22 1.32 1.42 1.68 1.89 2.00 1.82 1.58 1.52 1.52 1.54 1.43 1.25 1.12 0.97 0.88 0.84 0.80 0.84 0.89 0.90 0.93 0.96
1.48 1.57 1.68 1.70 1.67 1.54 1.37 1.21 1.10 1.04 1.00 0.99 1.08 1.11 1.15 1.17 1.19 1.24 1.43 1.58 1.59 1.48 1.41 1.43 1.50 1.55 1.55 1.45 1.23 0.98 0.88 0.81 0.77 0.88 1.01 0.99 0.91 0.92
1.36 1.51 1.77 1.84 1.84 1.80 1.68 1.48 1.33 1.23 1.17 1.15 1.17 1.17 1.17 1.21 1.25 1.30 1.38 1.50 1.50 1.40 1.35 1.34 1.48 1.63 1.61 1.50 1.24 1.02 0.89 0.83 0.83 0.94 1.01 1.00 0.91 0.89
1.11 1.29 1.59 1.80 1.87 1.88 1.79 1.59 1.40 1.35 1.38 1.33 1.29 1.26 1.25 1.28 1.35 1.38 1.41 1.50 1.55 1.50 1.42 1.45 1.54 1.63 1.55 1.30 1.10 0.99 0.99 0.97 1.01 1.01 0.99 0.98 0.92 0.87
1.06 1.20 1.45 1.72 1.84 1.89 1.86 1.79 1.64 1.57 1.55 1.50 1.45 1.40 1.38 1.40 1.39 1.40 1.42 1.44 1.48 1.55 1.49 1.46 1.48 1.46 1.43 1.34 1.25 1.10 1.06 1.13 1.18 1.12 1.05 1.08 1.05 1.07
1.22 1.26 1.36 1.56 1.73 1.83 1.84 1.82 1.76 1.71 1.69 1.70 1.65 1.60 1.56 1.58 1.52 1.43 1.43 1.51 1.51 1.54 1.45 1.25 1.22 1.42 1.60 1.75 1.60 1.24 1.11 1.15 1.26 1.32 1.27 1.29 1.25 1.21
1.34 1.34 1.39 1.51 1.69 1.83 1.87 1.84 1.86 1.81 1.78 1.75 1.70 1.65 1.62 1.63 1.62 1.58 1.58 1.59 1.51 1.46 1.44 1.38 1.46 1.64 1.69 1.67 1.49 1.34 1.25 1.22 1.30 1.36 1.32 1.26 1.21 1.12
1.51 1.47 1.49 1.58 1.67 1.76 1.75 1.70 1.71 1.78 1.76 1.72 1.67 1.64 1.60 1.56 1.57 1.61 1.61 1.64 1.60 1.57 1.62 1.67 1.68 1.67 1.59 1.58 1.52 1.46 1.43 1.39 1.38 1.35 1.21 1.14 1.01 0.91

GEFSNE_prec_meanprecacc_264.txt.gz
Total_Precipitation_Accumulation
1.68 1.88 1.75 1.58 1.58 1.54 1.70 1.92 2.00 1.72 1.51 1.43 1.41 1.43 1.64 1.74 1.92 1.81 1.65 1.72 1.55 1.38 1.29 1.24 1.27 1.36 1.42 1.46 1.54 1.65 1.79 1.90 2.02 2.25 2.60 2.96 3.30 3.62
1.79 1.95 1.91 1.77 1.75 1.66 1.70 1.86 2.07 2.01 1.73 1.47 1.50 1.48 1.57 1.45 1.64 1.52 1.55 1.69 1.53 1.43 1.39 1.33 1.29 1.32 1.34 1.40 1.43 1.44 1.45 1.47 1.46 1.52 1.65 1.85 2.08 2.39
1.77 1.83 1.84 1.97 1.97 1.89 2.00 2.05 2.12 2.23 2.02 1.64 1.67 1.79 1.81 1.62 1.57 1.50 1.48 1.48 1.43 1.46 1.38 1.35 1.29 1.24 1.19 1.15 1.22 1.28 1.29 1.31 1.31 1.32 1.33 1.35 1.37 1.47
1.81 1.95 1.87 1.94 2.00 2.06 2.22 2.12 2.19 2.47 2.39 2.05 2.00 2.09 1.99 1.86 1.80 1.68 1.45 1.37 1.36 1.52 1.42 1.33 1.26 1.18 1.14 1.10 1.10 1.13 1.14 1.16 1.18 1.18 1.18 1.15 1.13 1.14
1.91 1.99 2.03 2.21 2.11 2.15 2.20 2.14 2.19 2.44 2.63 2.39 2.21 2.31 2.27 2.06 2.01 1.78 1.62 1.63 1.42 1.46 1.48 1.37 1.28 1.22 1.14 1.12 1.11 1.07 1.02 1.00 0.98 1.01 1.06 1.11 1.14 1.16
2.02 2.05 2.08 2.16 2.22 2.36 2.35 2.41 2.56 2.74 2.88 2.73 2.58 2.66 2.69 2.58 2.37 2.00 1.87 1.76 1.62 1.47 1.52 1.43 1.37 1.31 1.21 1.13 1.08 1.07 1.06 1.03 1.01 0.99 1.00 1.03 1.08 1.12
1.98 2.03 2.01 2.13 2.20 2.30 2.23 2.42 2.73 2.92 3.05 3.07 3.01 3.15 3.09 2.98 2.64 2.26 2.16 2.04 1.86 1.61 1.52 1.40 1.37 1.30 1.26 1.24 1.18 1.14 1.11 1.09 1.08 1.09 1.09 1.07 1.07 1.09
2.07 2.10 2.08 2.07 1.99 2.01 2.08 2.21 2.40 2.59 2.82 3.03 3.10 3.18 3.21 3.11 2.92 2.65 2.31 2.05 1.86 1.70 1.71 1.57 1.45 1.37 1.24 1.16 1.27 1.24 1.16 1.13 1.11 1.10 1.12 1.14 1.17 1.20
2.11 2.13 1.95 1.82 1.87 1.77 1.91 1.97 1.94 1.99 2.12 2.40 2.61 2.66 2.90 3.03 2.94 2.59 2.27 2.00 1.79 1.73 1.77 1.64 1.52 1.41 1.29 1.26 1.36 1.23 1.17 1.14 1.10 1.07 1.08 1.10 1.13 1.18
1.92 1.95 1.93 1.83 1.82 1.90 1.90 1.77 1.60 1.55 1.67 1.68 1.76 2.02 2.33 2.68 2.80 2.67 2.61 2.31 1.98 1.75 1.68 1.62 1.46 1.36 1.28 1.24 1.37 1.28 1.18 1.14 1.11 1.08 1.03 1.01 1.01 1.04
1.87 1.87 1.84 1.71 1.84 1.80 1.73 1.72 1.60 1.49 1.50 1.53 1.57 1.77 2.06 2.34 2.58 2.61 2.52 2.41 2.12 1.79 1.65 1.59 1.45 1.43 1.37 1.27 1.24 1.28 1.18 1.15 1.14 1.11 1.08 1.06 1.04 1.05
1.92 1.93 1.94 1.78 1.85 1.80 1.75 1.76 1.65 1.55 1.54 1.51 1.52 1.57 1.64 1.95 2.28 2.29 2.27 2.32 2.17 1.91 1.62 1.60 1.50 1.50 1.47 1.22 1.05 1.02 1.05 1.14 1.16 1.11 1.07 1.06 1.08 0.96
1.88 1.83 1.84 1.84 1.67 1.57 1.51 1.51 1.56 1.59 1.59 1.51 1.44 1.44 1.50 1.62 1.84 1.94 2.02 2.05 1.99 1.78 1.53 1.59 1.54 1.49 1.41 1.24 1.09 1.02 0.96 0.95 0.97 1.00 1.04 1.07 1.07 0.93
1.70 1.67 1.66 1.62 1.42 1.28 1.14 1.11 1.18 1.18 1.24 1.32 1.31 1.27 1.29 1.36 1.53 1.80 1.98 2.00 1.90 1.77 1.72 1.67 1.58 1.53 1.48 1.34 1.16 1.04 0.98 0.92 0.85 0.80 0.82 1.06 1.11 1.11
1.42 1.62 1.61 1.47 1.34 1.25 1.18 1.10 1.02 0.94 1.02 1.12 1.07 1.07 1.12 1.22 1.38 1.69 1.95 2.14 2.04 1.79 1.66 1.63 1.58 1.55 1.51 1.31 1.08 0.96 0.95 0.91 0.84 0.81 0.82 0.89 0.94 1.01
1.36 1.53 1.61 1.59 1.50 1.40 1.29 1.12 0.95 0.93 0.95 1.00 1.06 1.10 1.21 1.29 1.36 1.45 1.71 1.92 2.02 1.86 1.60 1.54 1.55 1.56 1.45 1.27 1.14 0.98 0.89 0.86 0.82 0.85 0.91 0.92 0.95 0.99
1.50 1.59 1.70 1.73 1.71 1.60 1.44 1.29 1.18 1.13 1.08 1.07 1.16 1.20 1.24 1.26 1.25 1.29 1.47 1.62 1.62 1.52 1.44 1.45 1.51 1.57 1.57 1.47 1.25 0.99 0.90 0.83 0.80 0.91 1.04 1.02 0.93 0.94
1.38 1.52 1.79 1.86 1.87 1.84 1.73 1.55 1.40 1.31 1.24 1.23 1.25 1.24 1.25 1.29 1.33 1.37 1.46 1.57 1.55 1.44 1.39 1.38 1.52 1.66 1.64 1.52 1.26 1.04 0.92 0.87 0.87 0.98 1.05 1.03 0.94 0.91
1.12 1.31 1.61 1.82 1.90 1.92 1.84 1.64 1.45 1.42 1.46 1.41 1.36 1.32 1.31 1.34 1.43 1.46 1.50 1.59 1.64 1.58 1.49 1.52 1.61 1.69 1.61 1.34 1.12 1.01 1.02 1.00 1.05 1.05 1.04 1.03 0.98 0.93
1.07 1.22 1.47 1.75 1.88 1.94 1.91 1.83 1.68 1.61 1.60 1.55 1.50 1.45 1.42 1.44 1.44 1.45 1.48 1.51 1.55 1.64 1.59 1.56 1.57 1.55 1.50 1.41 1.30 1.14 1.11 1.18 1.23 1.19 1.13 1.16 1.13 1.13
1.23 1.28 1.39 1.59 1.79 1.92 1.92 1.88 1.81 1.74 1.72 1.73 1.68 1.63 1.59 1.62 1.56 1.48 1.49 1.57 1.58 1.61 1.52 1.32 1.29 1.49 1.67 1.83 1.67 1.29 1.15 1.20 1.31 1.38 1.33 1.36 1.31 1.25
1.35 1.36 1.41 1.54 1.74 1.91 1.95 1.90 1.91 1.85 1.82 1.78 1.73 1.68 1.64 1.67 1.66 1.63 1.64 1.67 1.60 1.56 1.54 1.47 1.54 1.72 1.77 1.75 1.55 1.39 1.30 1.26 1.34 1.40 1.37 1.31 1.27 1.18
1.52 1.49 1.51 1.61 1.73 1.82 1.82 1.76 1.76 1.82 1.79 1.74 1.70 1.67 1.62 1.59 1.60 1.66 1.67 1.70 1.67 1.65 1.70 1.75 1.75 1.73 1.64 1.62 1.56 1.50 1.47 1.42 1.41 1.37 1.22 1.17 1.05 0.96

GEFSNE_prec_meanprecacc_270.txt.gz
Total_Precipitation_Accumulation
1.74 1.94 1.82 1.63 1.63 1.61 1.78 2.02 2.11 1.80 1.56 1.47 1.43 1.45 1.65 1.76 1.94 1.84 1.68 1.75 1.58 1.42 1.32 1.29 1.32 1.39 1.44 1.48 1.56 1.67 1.82 1.93 2.06 2.30 2.67 3.06 3.43 3.80
1.83 1.99 1.98 1.83 1.81 1.73 1.76 1.92 2.15 2.09 1.80 1.51 1.53 1.50 1.59 1.47 1.66 1.54 1.58 1.71 1.56 1.45 1.41 1.36 1.33 1.36 1.37 1.42 1.45 1.45 1.46 1.50 1.51 1.57 1.72 1.93 2.19 2.51
1.82 1.87 1.91 2.04 2.03 1.95 2.06 2.10 2.18 2.30 2.08 1.68 1.70 1.83 1.84 1.65 1.61 1.53 1.50 1.51 1.46 1.49 1.41 1.38 1.33 1.28 1.22 1.18 1.24 1.30 1.30 1.32 1.34 1.36 1.40 1.42 1.44 1.54
1.86 2.01 1.93 2.01 2.07 2.12 2.28 2.18 2.25 2.54 2.45 2.10 2.03 2.13 2.03 1.90 1.84 1.73 1.48 1.39 1.38 1.55 1.45 1.36 1.28 1.20 1.17 1.13 1.12 1.14 1.16 1.17 1.20 1.24 1.27 1.21 1.18 1.20
1.96 2.05 2.08 2.27 2.17 2.21 2.26 2.21 2.26 2.50 2.69 2.44 2.24 2.34 2.29 2.08 2.04 1.83 1.65 1.65 1.43 1.47 1.49 1.38 1.29 1.23 1.16 1.14 1.13 1.09 1.03 1.01 1.00 1.04 1.11 1.17 1.19 1.21
2.04 2.09 2.13 2.20 2.27 2.42 2.40 2.47 2.63 2.80 2.93 2.77 2.62 2.69 2.71 2.60 2.40 2.03 1.92 1.80 1.65 1.49 1.54 1.44 1.38 1.32 1.22 1.14 1.09 1.09 1.07 1.04 1.03 1.01 1.02 1.06 1.12 1.16
2.00 2.06 2.04 2.16 2.24 2.36 2.28 2.47 2.80 2.98 3.10 3.12 3.04 3.18 3.11 3.01 2.66 2.29 2.19 2.07 1.89 1.63 1.54 1.42 1.39 1.31 1.27 1.25 1.20 1.16 1.13 1.10 1.10 1.12 1.12 1.10 1.10 1.12
2.11 2.14 2.11 2.10 2.03 2.07 2.13 2.26 2.47 2.66 2.87 3.07 3.14 3.22 3.24 3.15 2.97 2.69 2.34 2.08 1.89 1.73 1.74 1.61 1.47 1.39 1.27 1.19 1.29 1.25 1.18 1.14 1.13 1.13 1.15 1.17 1.20 1.23
2.16 2.18 2.00 1.86 1.92 1.82 1.96 2.03 2.00 2.05 2.18 2.46 2.65 2.70 2.95 3.08 2.99 2.62 2.31 2.04 1.82 1.76 1.81 1.68 1.55 1.44 1.32 1.28 1.38 1.25 1.19 1.16 1.12 1.09 1.10 1.12 1.15 1.21
1.96 2.00 1.97 1.86 1.86 1.96 1.96 1.83 1.65 1.61 1.73 1.74 1.80 2.05 2.37 2.73 2.85 2.71 2.66 2.36 2.02 1.78 1.72 1.66 1.49 1.39 1.30 1.26 1.39 1.30 1.20 1.15 1.12 1.09 1.04 1.02 1.04 1.07
1.91 1.91 1.88 1.75 1.90 1.85 1.78 1.76 1.65 1.53 1.54 1.57 1.62 1.82 2.11 2.38 2.63 2.67 2.58 2.47 2.17 1.83 1.69 1.63 1.48 1.45 1.39 1.28 1.25 1.29 1.19 1.17 1.15 1.12 1.09 1.07 1.06 1.07
1.97 1.98 2.00 1.84 1.91 1.85 1.79 1.80 1.68 1.58 1.58 1.55 1.57 1.62 1.69 2.00 2.34 2.34 2.32 2.37 2.21 1.94 1.65 1.64 1.52 1.52 1.49 1.23 1.05 1.03 1.05 1.15 1.17 1.12 1.09 1.07 1.10 0.97
1.96 1.90 1.91 1.92 1.72 1.60 1.53 1.52 1.58 1.63 1.64 1.55 1.48 1.48 1.54 1.66 1.88 1.98 2.06 2.09 2.03 1.81 1.57 1.62 1.57 1.52 1.43 1.25 1.10 1.02 0.97 0.96 0.97 1.01 1.04 1.08 1.08 0.94
1.77 1.73 1.71 1.67 1.47 1.33 1.17 1.13 1.21 1.22 1.27 1.35 1.34 1.30 1.33 1.40 1.58 1.85 2.01 2.04 1.96 1.84 1.78 1.73 1.63 1.58 1.52 1.36 1.17 1.05 0.99 0.92 0.86 0.80 0.82 1.06 1.11 1.11
1.46 1.66 1.64 1.50 1.37 1.28 1.22 1.14 1.05 0.97 1.06 1.15 1.11 1.11 1.17 1.28 1.45 1.75 2.00 2.19 2.11 1.87 1.74 1.71 1.66 1.63 1.57 1.35 1.10 0.97 0.96 0.92 0.86 0.84 0.83 0.89 0.95 1.02
1.40 1.56 1.63 1.61 1.52 1.41 1.31 1.15 0.98 0.96 0.99 1.05 1.12 1.16 1.27 1.36 1.44 1.53 1.78 2.00 2.10 1.93 1.67 1.62 1.64 1.67 1.55 1.35 1.19 1.02 0.91 0.88 0.84 0.88 0.93 0.94 0.97 1.00
1.52 1.61 1.71 1.74 1.72 1.61 1.45 1.30 1.19 1.15 1.12 1.11 1.22 1.27 1.31 1.34 1.33 1.37 1.56 1.72 1.72 1.61 1.54 1.53 1.60 1.67 1.67 1.56 1.32 1.04 0.93 0.86 0.82 0.93 1.06 1.04 0.96 0.96
1.40 1.54 1.80 1.87 1.87 1.84 1.73 1.56 1.42 1.33 1.28 1.28 1.30 1.31 1.32 1.37 1.42 1.46 1.55 1.67 1.65 1.54 1.50 1.47 1.61 1.76 1.73 1.60 1.32 1.10 0.96 0.90 0.91 1.02 1.09 1.08 0.98 0.95
1.14 1.32 1.62 1.83 1.91 1.92 1.84 1.65 1.47 1.44 1.49 1.46 1.41 1.38 1.37 1.40 1.50 1.55 1.61 1.70 1.74 1.69 1.59 1.63 1.72 1.80 1.72 1.43 1.20 1.09 1.10 1.06 1.10 1.10 1.07 1.06 1.01 0.96
1.08 1.22 1.48 1.76 1.89 1.95 1.92 1.84 1.70 1.65 1.65 1.61 1.56 1.50 1.47 1.48 1.49 1.50 1.54 1.58 1.62 1.70 1.64 1.62 1.64 1.61 1.57 1.47 1.37 1.21 1.17 1.24 1.28 1.23 1.17 1.20 1.16 1.16
1.24 1.28 1.39 1.60 1.80 1.92 1.93 1.90 1.83 1.78 1.79 1.80 1.74 1.69 1.64 1.66 1.60 1.52 1.54 1.61 1.63 1.65 1.56 1.37 1.35 1.55 1.72 1.87 1.71 1.33 1.18 1.23 1.34 1.42 1.36 1.39 1.34 1.28
1.36 1.37 1.41 1.55 1.75 1.92 1.97 1.92 1.93 1.87 1.86 1.85 1.80 1.75 1.70 1.71 1.70 1.66 1.67 1.70 1.64 1.59 1.57 1.50 1.58 1.77 1.84 1.81 1.61 1.44 1.35 1.31 1.39 1.45 1.41 1.34 1.30 1.21
1.53 1.51 1.53 1.63 1.74 1.83 1.84 1.78 1.78 1.84 1.82 1.79 1.76 1.74 1.69 1.64 1.64 1.69 1.70 1.73 1.70 1.68 1.73 1.78 1.79 1.77 1.69 1.68 1.62 1.55 1.52 1.48 1.47 1.45 1.29 1.22 1.09 0.99

GEFSNE_prec_meanprecacc_276.txt.gz
Total_Precipitation_Accumulation
1.78 2.00 1.87 1.68 1.67 1.66 1.84 2.11 2.23 1.92 1.65 1.56 1.52 1.52 1.71 1.81 2.00 1.88 1.71 1.80 1.63 1.45 1.35 1.31 1.33 1.40 1.45 1.49 1.57 1.69 1.84 1.95 2.08 2.33 2.71 3.11 3.49 3.87
1.86 2.05 2.03 1.87 1.86 1.78 1.82 1.99 2.23 2.19 1.87 1.57 1.61 1.57 1.64 1.51 1.72 1.59 1.62 1.76 1.59 1.48 1.43 1.37 1.34 1.36 1.38 1.44 1.47 1.47 1.48 1.51 1.52 1.59 1.74 1.95 2.22 2.55
1.84 1.91 1.95 2.09 2.10 2.01 2.11 2.16 2.23 2.37 2.13 1.71 1.74 1.86 1.88 1.71 1.68 1.60 1.57 1.57 1.49 1.53 1.43 1.39 1.33 1.29 1.23 1.19 1.26 1.31 1.32 1.34 1.35 1.38 1.42 1.44 1.47 1.58
1.89 2.04 1.96 2.06 2.15 2.19 2.36 2.24 2.30 2.58 2.50 2.15 2.08 2.18 2.09 1.96 1.91 1.81 1.56 1.46 1.43 1.60 1.49 1.38 1.29 1.21 1.18 1.14 1.13 1.16 1.18 1.19 1.22 1.26 1.29 1.24 1.21 1.25
2.00 2.09 2.14 2.34 2.25 2.30 2.35 2.28 2.32 2.56 2.75 2.50 2.28 2.39 2.34 2.12 2.11 1.89 1.72 1.73 1.50 1.53 1.54 1.42 1.32 1.25 1.17 1.15 1.14 1.10 1.05 1.03 1.02 1.07 1.14 1.20 1.23 1.26
2.08 2.13 2.17 2.25 2.34 2.50 2.48 2.54 2.71 2.89 3.02 2.85 2.67 2.73 2.75 2.65 2.46 2.10 1.99 1.87 1.72 1.54 1.60 1.49 1.42 1.35 1.24 1.16 1.11 1.10 1.08 1.06 1.05 1.04 1.05 1.09 1.15 1.20
2.03 2.09 2.07 2.21 2.30 2.43 2.34 2.54 2.88 3.07 3.19 3.20 3.11 3.25 3.18 3.07 2.73 2.38 2.27 2.15 1.95 1.68 1.60 1.48 1.44 1.35 1.31 1.28 1.22 1.17 1.14 1.11 1.11 1.13 1.14 1.11 1.12 1.15
2.16 2.19 2.15 2.16 2.08 2.13 2.20 2.33 2.55 2.73 2.94 3.16 3.21 3.29 3.31 3.24 3.07 2.78 2.43 2.16 1.95 1.77 1.79 1.65 1.52 1.44 1.31 1.22 1.32 1.28 1.19 1.15 1.14 1.13 1.15 1.18 1.21 1.25
2.22 2.24 2.04 1.90 1.97 1.87 2.01 2.08 2.04 2.08 2.22 2.52 2.71 2.75 3.02 3.17 3.10 2.70 2.39 2.10 1.87 1.81 1.87 1.73 1.59 1.48 1.35 1.31 1.41 1.27 1.20 1.17 1.13 1.10 1.11 1.13 1.17 1.22
2.01 2.05 2.02 1.92 1.91 2.00 2.00 1.88 1.69 1.64 1.76 1.77 1.84 2.09 2.43 2.81 2.94 2.78 2.72 2.43 2.09 1.85 1.80 1.72 1.54 1.43 1.32 1.28 1.40 1.32 1.21 1.16 1.13 1.10 1.05 1.03 1.05 1.09
1.95 1.96 1.93 1.79 1.94 1.89 1.82 1.81 1.69 1.57 1.58 1.60 1.66 1.86 2.15 2.43 2.68 2.72 2.63 2.52 2.21 1.87 1.75 1.71 1.54 1.49 1.42 1.30 1.27 1.31 1.22 1.18 1.16 1.14 1.11 1.09 1.08 1.09
2.02 2.03 2.04 1.89 1.95 1.89 1.83 1.85 1.73 1.63 1.63 1.60 1.61 1.66 1.73 2.04 2.37 2.38 2.38 2.43 2.26 2.00 1.70 1.70 1.59 1.58 1.53 1.25 1.07 1.06 1.08 1.17 1.19 1.14 1.10 1.09 1.12 0.99
2.02 1.95 1.97 1.99 1.78 1.65 1.58 1.57 1.63 1.68 1.68 1.60 1.53 1.53 1.58 1.70 1.92 2.01 2.10 2.14 2.09 1.88 1.62 1.68 1.64 1.60 1.50 1.29 1.13 1.05 1.00 0.99 1.00 1.03 1.06 1.10 1.09 0.95
1.82 1.79 1.78 1.75 1.55 1.39 1.23 1.18 1.26 1.28 1.33 1.40 1.38 1.34 1.37 1.43 1.62 1.89 2.06 2.09 2.02 1.90 1.84 1.80 1.71 1.66 1.60 1.43 1.23 1.09 1.02 0.95 0.88 0.82 0.84 1.08 1.14 1.14
1.54 1.74 1.72 1.59 1.45 1.34 1.27 1.19 1.10 1.03 1.13 1.22 1.17 1.17 1.21 1.32 1.49 1.80 2.05 2.25 2.18 1.94 1.81 1.79 1.75 1.72 1.66 1.43 1.17 1.04 1.01 0.95 0.89 0.86 0.85 0.91 0.97 1.04
1.48 1.64 1.71 1.69 1.58 1.47 1.36 1.19 1.01 1.00 1.04 1.11 1.18 1.22 1.32 1.40 1.49 1.61 1.88 2.07 2.15 1.99 1.75 1.71 1.73 1.76 1.64 1.45 1.29 1.11 1.00 0.95 0.89 0.93 0.98 0.97 0.99 1.03
1.58 1.66 1.78 1.81 1.78 1.67 1.51 1.35 1.23 1.19 1.15 1.14 1.25 1.30 1.35 1.38 1.38 1.43 1.63 1.79 1.78 1.67 1.60 1.59 1.68 1.76 1.75 1.66 1.42 1.13 1.02 0.95 0.90 1.01 1.13 1.10 1.00 1.00
1.43 1.56 1.83 1.90 1.91 1.88 1.77 1.58 1.44 1.35 1.30 1.30 1.32 1.33 1.35 1.40 1.45 1.50 1.58 1.71 1.71 1.62 1.57 1.53 1.68 1.84 1.82 1.69 1.41 1.18 1.04 0.98 0.99 1.10 1.16 1.14 1.04 0.99
1.16 1.34 1.65 1.85 1.93 1.93 1.85 1.65 1.47 1.45 1.50 1.47 1.43 1.40 1.40 1.43 1.53 1.58 1.65 1.74 1.78 1.73 1.65 1.68 1.78 1.87 1.79 1.51 1.26 1.16 1.18 1.15 1.19 1.18 1.14 1.13 1.07 1.02
1.10 1.25 1.49 1.77 1.90 1.95 1.92 1.85 1.70 1.66 1.66 1.62 1.58 1.53 1.49 1.51 1.52 1.54 1.58 1.62 1.67 1.74 1.69 1.67 1.68 1.66 1.63 1.56 1.45 1.27 1.23 1.32 1.37 1.32 1.24 1.27 1.22 1.22
1.25 1.30 1.40 1.60 1.81 1.93 1.94 1.91 1.84 1.80 1.80 1.81 1.76 1.70 1.66 1.69 1.64 1.56 1.58 1.66 1.67 1.68 1.60 1.40 1.39 1.59 1.77 1.94 1.78 1.38 1.24 1.29 1.41 1.48 1.43 1.46 1.40 1.34
1.37 1.38 1.42 1.56 1.76 1.93 1.99 1.94 1.94 1.88 1.87 1.86 1.81 1.77 1.72 1.73 1.73 1.70 1.71 1.74 1.68 1.63 1.60 1.53 1.61 1.82 1.90 1.87 1.67 1.49 1.40 1.37 1.45 1.51 1.46 1.40 1.36 1.26
1.55 1.52 1.55 1.66 1.77 1.86 1.86 1.80 1.80 1.86 1.83 1.80 1.78 1.76 1.71 1.67 1.67 1.73 1.73 1.77 1.75 1.73 1.77 1.82 1.84 1.82 1.75 1.75 1.68 1.60 1.56 1.53 1.54 1.51 1.35 1.28 1.15 1.05